Tracking 34794 objects as of 19-Jul-2026
HD Live streaming from Space Station
objects crossing your sky now

SITRO-AIS-28

Track SITRO-AIS-28 now!
10-day predictions
SITRO-AIS-28 is classified as:


NORAD ID: 59071
Int'l Code: 2024-039U
Perigee: 493.7 km
Apogee: 692.1 km
Inclination: 95.4 °
Period: 96.4 minutes
Semi major axis: 6963 km
RCS: Unknown
Launch date: February 29, 2024
Source: (TBD)
Launch site: VOSTOCHNY COSMODROME (VOSTO)

Uplink (MHz):
Downlink (MHz): 401.350
Beacon (MHz):
Mode: 2k4 GMSK_USP
Call sign: SC2316
Status: Active

Your satellite tracking list
Your tracking list is empty




NASA's NSSDC Master Catalog

Two Line Element Set (TLE):
1 59071U 24039U   26200.27715042  .00001311  00000-0  10366-3 0  9993
2 59071  95.3893 257.3704 0142443 214.0654 145.1369 14.93905862129535
Source of the keplerian elements: AFSPC